Wind_Speed
26 27 29 30 23 19 11 5 8 9 12 14 4 10 22 27 37 36 36 33 34 32 30 25 21 16 13 13 11 9 14 11 9 8 10 9 13 9 10 8 10 10 11 10
19 24 24 23 24 20 14 10 7 11 10 6 14 15 20 32 36 35 37 35 33 31 31 26 23 18 14 13 12 14 14 12 11 11 10 12 14 12 10 10 10 9 10 11
20 12 11 20 26 21 15 15 14 13 14 9 10 8 15 25 29 35 36 34 33 34 32 26 22 16 12 14 13 12 15 12 12 10 8 11 14 11 9 9 10 9 9 12
20 16 14 17 19 16 18 10 16 18 23 13 19 8 14 22 29 36 36 36 36 34 29 24 20 14 10 9 13 13 15 15 11 10 9 11 13 11 11 11 12 11 10 11
16 17 16 16 17 13 18 10 13 18 28 19 15 5 7 23 23 36 39 38 36 35 31 25 22 17 12 9 11 15 16 17 13 11 11 16 10 12 13 9 9 10 8 8
22 13 15 13 11 14 12 13 10 19 16 8 20 14 11 28 37 31 39 40 38 35 32 27 24 20 14 12 9 15 16 17 15 12 12 16 15 12 9 9 7 6 7 7
20 21 16 18 15 16 20 10 8 4 4 8 20 18 15 15 31 25 26 37 40 37 33 33 31 23 17 11 9 10 14 18 17 13 14 16 15 12 13 9 9 6 6 5
6 10 16 13 17 13 12 13 6 5 5 2 13 11 11 20 19 27 25 28 29 35 38 33 31 26 17 11 7 6 3 18 18 16 15 17 15 13 14 12 10 8 7 7
4 8 13 16 14 16 15 10 10 9 14 3 10 8 13 25 27 31 25 29 28 30 21 34 34 31 25 22 17 10 5 12 16 15 16 16 18 16 15 11 14 12 9 9
10 11 13 12 18 17 20 14 4 7 1 3 5 7 10 24 31 35 33 31 30 31 28 27 31 34 32 31 24 20 17 12 13 13 15 17 16 17 17 16 14 14 13 12
12 12 10 12 17 19 13 9 5 5 3 4 4 4 3 22 27 31 35 33 37 33 27 34 34 35 34 31 24 31 24 22 18 15 15 15 15 16 17 16 16 14 15 17
9 4 4 8 9 11 14 11 6 4 2 4 6 5 17 23 21 22 25 31 34 44 27 33 32 30 27 35 29 38 34 27 23 23 21 20 17 16 16 15 14 11 13 15
5 6 3 4 7 3 11 11 9 5 4 8 5 9 18 20 26 18 16 21 17 20 24 25 27 26 22 26 1 13 25 29 36 30 29 28 26 23 19 17 16 13 12 13
3 10 12 6 5 8 2 9 9 8 2 6 6 28 25 21 18 10 12 4 5 10 18 23 27 25 20 17 12 10 13 29 29 31 29 30 29 29 26 23 22 19 15 14
4 6 7 10 6 3 4 6 15 12 6 8 16 22 26 20 15 15 26 19 16 13 14 15 19 20 23 23 21 12 10 16 16 9 3 18 25 33 32 31 27 25 21 20
2 12 6 4 10 5 8 9 6 12 15 9 23 23 25 20 17 18 17 15 12 12 15 15 14 13 12 18 17 14 13 14 11 4 2 5 9 6 35 36 30 29 25 23
7 4 11 4 7 8 5 16 9 15 15 13 25 28 29 22 20 18 15 13 16 16 20 19 17 15 14 12 11 11 10 10 11 12 10 9 5 7 5 11 24 26 25 25
4 3 3 6 6 2 8 8 4 17 13 13 18 29 29 28 24 20 16 14 18 19 20 19 16 13 12 13 12 9 8 7 6 6 10 13 16 16 15 14 12 25 27 24
7 6 2 2 9 5 6 4 12 5 10 10 18 34 31 26 25 21 18 13 14 16 16 16 15 11 9 9 8 9 9 8 8 8 8 9 11 11 17 19 18 24 22 19
6 7 9 3 3 3 11 10 6 7 11 17 17 24 28 32 27 23 17 10 14 17 16 15 14 13 12 11 11 10 10 11 11 11 11 11 11 12 15 16 23 29 33 33
2 3 4 8 3 4 11 8 10 15 14 14 19 19 24 23 20 19 19 17 13 11 14 15 16 16 16 16 17 18 18 18 18 17 17 17 17 18 20 21 20 19 19 24
2 2 1 5 6 5 9 9 17 16 16 19 22 23 24 22 20 18 17 19 18 23 21 18 18 18 18 18 18 20 22 22 24 24 23 23 24 24 23 26 27 26 25 23
3 1 3 1 3 2 2 6 8 8 12 23 28 25 23 24 23 23 24 24 24 25 25 26 26 25 24 23 24 24 23 24 26 27 28 28 26 26 27 27 28 28 28 29
4 1 4 5 5 7 8 8 8 11 17 27 28 27 27 25 26 26 25 25 25 24 24 25 26 26 27 27 26 24 22 23 24 25 26 28 29 30 30 31 31 31 31 31
9 11 11 13 11 10 11 14 16 13 14 17 20 23 26 28 29 30 32 30 26 20 18 19 21 21 22 21 21 20 19 20 20 18 18 18 18 20 24 27 30 31 33 32
13 13 15 14 13 14 12 11 16 17 17 18 20 23 26 28 30 33 34 28 22 21 20 19 20 21 20 18 18 18 18 17 17 17 17 17 17 18 19 20 21 23 24 25
Wind_Direction
178 199 204 193 205 195 192 266 325 194 182 180 170 179 172 171 174 178 179 176 184 198 206 212 230 234 234 201 186 184 190 176 165 182 168 167 141 132 128 138 143 144 139 145
188 211 213 203 203 212 229 264 264 185 181 121 140 140 167 176 182 183 187 181 189 197 202 218 228 229 230 213 192 162 187 182 173 190 171 179 146 151 143 140 140 145 147 155
201 214 200 200 202 217 230 253 235 229 206 309 201 201 191 188 189 188 191 188 194 202 209 218 226 232 215 213 207 178 180 193 186 182 179 181 163 158 162 157 146 142 137 151
225 176 180 195 206 215 255 217 254 232 205 184 197 195 199 201 194 190 190 194 201 205 217 225 231 234 237 229 219 195 184 199 200 179 194 191 169 164 177 182 159 148 139 145
215 209 210 216 207 219 247 255 271 239 199 174 176 206 218 189 205 195 198 198 205 209 218 222 234 241 252 254 227 210 197 202 202 192 189 197 204 168 173 177 165 149 151 134
244 208 206 205 203 226 230 274 230 184 175 180 212 198 209 201 197 201 202 203 206 211 213 223 233 236 247 263 223 218 207 212 209 198 198 198 187 174 182 172 186 162 163 162
238 241 229 232 242 228 227 224 161 152 227 232 209 197 230 215 203 205 196 203 206 209 208 221 224 225 244 229 197 197 216 220 218 200 203 201 188 174 184 190 189 180 187 189
254 246 225 224 221 236 227 213 188 184 172 177 177 203 237 218 199 195 204 202 203 209 215 218 217 221 242 230 195 174 282 224 220 210 203 201 194 187 193 192 197 198 205 201
334 241 215 208 217 223 223 221 239 275 282 153 153 175 209 176 183 192 193 202 210 205 213 214 209 217 224 223 218 222 239 224 222 220 223 210 204 203 201 206 201 195 202 207
248 256 233 215 208 222 223 220 236 223 251 128 113 101 177 182 186 187 199 205 204 204 207 211 214 213 225 224 218 213 211 201 209 223 231 225 213 209 204 211 209 198 195 203
212 227 207 216 205 214 193 200 168 163 311 164 142 54 141 176 185 196 198 204 204 197 211 212 209 213 229 242 224 230 206 205 195 195 199 215 212 213 212 212 216 206 193 192
161 155 229 180 123 184 200 204 207 178 181 98 112 106 169 192 196 206 190 205 200 197 206 209 216 222 237 237 276 225 219 219 209 199 203 205 205 209 217 217 220 210 210 202
71 40 94 201 189 134 204 203 220 236 263 194 147 147 176 202 205 200 207 187 197 207 213 218 212 219 228 234 303 238 220 216 221 218 208 211 212 210 213 220 228 221 218 219
123 68 71 56 35 17 306 251 246 229 238 171 139 151 159 184 195 162 145 129 220 209 204 204 200 207 217 202 208 244 234 219 237 236 227 226 223 219 217 218 222 226 218 224
197 172 114 107 49 315 12 284 234 224 269 204 164 170 175 186 194 216 229 247 226 231 232 218 210 216 217 214 207 205 211 192 205 262 306 238 229 223 225 219 221 225 221 223
17 204 201 48 15 357 40 27 271 202 171 177 171 159 179 182 192 187 189 205 226 219 201 191 182 184 203 217 218 223 205 213 208 203 192 235 63 327 233 223 220 223 225 229
72 106 218 1 355 329 78 33 44 159 169 203 178 173 177 187 202 203 194 187 187 194 170 159 160 159 157 163 174 181 202 195 204 212 214 202 187 184 52 279 222 220 229 237
84 128 150 192 312 60 56 34 19 131 135 162 172 170 183 185 181 187 180 187 183 181 173 164 160 160 156 154 155 155 167 189 207 219 223 231 233 223 212 196 216 212 234 242
263 265 206 246 213 285 327 84 139 166 112 158 170 175 179 186 195 171 180 190 205 185 188 183 181 178 189 196 180 179 185 195 209 223 219 221 234 240 233 229 217 214 211 230
215 224 226 202 144 179 135 128 130 137 148 168 183 189 193 192 200 200 198 220 225 210 204 205 199 199 208 224 231 235 237 230 225 226 234 244 241 248 259 255 242 235 234 245
169 217 203 211 201 171 187 159 235 233 233 197 202 211 198 205 223 223 237 263 230 222 226 229 228 225 225 227 234 242 243 247 250 248 249 248 247 250 249 251 253 248 250 251
172 218 191 198 194 189 204 187 204 238 217 208 209 221 209 206 208 213 225 237 254 261 267 254 252 251 249 248 245 245 250 250 250 251 250 248 252 252 245 243 241 244 247 245
211 311 241 278 177 216 175 218 223 220 189 192 208 210 220 226 225 219 226 238 255 265 270 270 269 266 265 266 266 262 255 252 253 254 255 255 250 247 245 243 243 248 250 249
168 211 273 227 226 236 205 209 201 188 192 195 200 210 221 231 239 242 242 247 262 269 266 263 262 262 265 266 265 263 262 260 256 256 255 254 253 251 248 248 248 250 252 254
239 248 249 252 241 244 254 224 224 220 208 215 224 230 237 247 254 260 261 263 269 264 261 259 261 261 260 261 263 265 261 258 259 255 251 249 249 250 253 253 252 252 254 255
233 237 239 242 243 247 246 246 227 229 237 255 254 243 242 247 253 258 263 267 264 262 259 259 260 260 259 256 253 253 253 252 252 254 256 259 261 258 256 256 260 260 260 262
Height
3138 3140 3140 3144 3148 3153 3155 3160 3162 3163 3163 3163 3168 3170 3169 3175 3181 3186 3191 3196 3200 3203 3206 3208 3210 3213 3214 3216 3217 3218 3221 3222 3224 3227 3229 3230 3230 3231 3232 3233 3234 3235 3236 3238
3137 3136 3141 3146 3148 3151 3155 3159 3162 3163 3165 3170 3172 3173 3174 3178 3180 3184 3190 3194 3198 3203 3207 3209 3210 3212 3214 3216 3219 3221 3223 3224 3225 3227 3231 3231 3231 3233 3233 3235 3236 3236 3237 3238
3134 3137 3140 3142 3146 3149 3151 3156 3160 3162 3162 3171 3172 3171 3174 3174 3182 3186 3191 3195 3199 3200 3204 3207 3209 3212 3214 3216 3219 3223 3224 3225 3227 3229 3231 3233 3232 3233 3235 3236 3237 3238 3238 3239
3134 3136 3138 3141 3144 3148 3148 3153 3158 3158 3159 3162 3170 3167 3167 3172 3168 3183 3189 3193 3196 3199 3202 3206 3208 3211 3214 3217 3218 3222 3224 3225 3227 3230 3231 3232 3234 3235 3237 3238 3238 3239 3239 3240
3131 3133 3136 3138 3140 3146 3147 3152 3154 3153 3157 3160 3164 3165 3162 3169 3174 3180 3185 3190 3193 3197 3198 3202 3205 3210 3214 3216 3219 3220 3223 3224 3227 3230 3231 3232 3234 3236 3237 3239 3240 3239 3239 3240
3129 3133 3135 3137 3140 3143 3147 3150 3151 3152 3155 3156 3156 3160 3160 3160 3165 3173 3180 3186 3190 3194 3196 3200 3204 3209 3213 3216 3218 3219 3222 3225 3226 3230 3230 3233 3234 3237 3238 3239 3241 3240 3242 3241
3126 3126 3130 3134 3137 3139 3143 3147 3149 3157 3162 3153 3151 3158 3156 3159 3164 3169 3172 3180 3188 3191 3193 3196 3199 3206 3211 3214 3216 3218 3220 3223 3226 3228 3230 3232 3234 3237 3239 3239 3241 3242 3243 3243
3125 3126 3127 3130 3133 3135 3139 3142 3143 3149 3152 3149 3151 3153 3154 3158 3164 3170 3174 3179 3186 3189 3192 3192 3197 3203 3209 3212 3215 3217 3219 3220 3224 3227 3230 3231 3233 3235 3237 3238 3239 3241 3243 3243
3124 3124 3125 3128 3131 3134 3136 3139 3142 3142 3144 3147 3150 3151 3150 3155 3162 3167 3172 3176 3181 3186 3187 3190 3193 3199 3203 3208 3211 3215 3218 3219 3222 3225 3226 3229 3231 3234 3235 3237 3238 3240 3242 3243
3123 3123 3123 3126 3130 3132 3134 3138 3140 3141 3145 3148 3148 3151 3152 3153 3157 3163 3167 3172 3176 3180 3183 3186 3191 3194 3198 3202 3207 3211 3214 3218 3220 3222 3224 3226 3229 3231 3232 3234 3237 3239 3240 3242
3119 3121 3123 3124 3126 3128 3132 3135 3138 3140 3142 3142 3148 3153 3154 3155 3158 3161 3165 3169 3172 3180 3180 3183 3187 3193 3196 3196 3200 3207 3211 3215 3216 3217 3219 3223 3227 3229 3230 3232 3233 3237 3238 3239
3117 3119 3120 3122 3124 3127 3129 3133 3136 3138 3141 3141 3144 3154 3152 3154 3157 3159 3165 3167 3172 3176 3180 3182 3185 3191 3192 3193 3193 3199 3205 3207 3212 3213 3215 3218 3221 3225 3228 3230 3231 3234 3237 3237
3118 3119 3118 3121 3124 3125 3127 3130 3133 3136 3139 3140 3143 3154 3153 3155 3159 3160 3164 3169 3174 3176 3177 3179 3183 3187 3188 3192 3187 3187 3197 3201 3203 3209 3212 3214 3217 3219 3222 3226 3228 3231 3233 3235
3119 3120 3120 3124 3125 3126 3125 3125 3130 3133 3136 3136 3139 3146 3152 3153 3157 3160 3161 3168 3173 3174 3176 3177 3181 3183 3184 3187 3189 3191 3191 3195 3199 3204 3201 3211 3216 3216 3218 3220 3223 3226 3229 3232
3119 3121 3122 3122 3123 3127 3126 3123 3126 3129 3133 3135 3140 3142 3151 3152 3155 3157 3160 3168 3170 3172 3172 3174 3176 3178 3179 3183 3188 3190 3192 3195 3199 3203 3202 3201 3203 3211 3212 3215 3218 3221 3224 3226
3118 3120 3121 3123 3126 3126 3125 3123 3122 3126 3131 3133 3135 3140 3147 3151 3154 3157 3160 3163 3168 3169 3169 3171 3172 3175 3178 3182 3186 3187 3191 3195 3195 3198 3200 3205 3200 3205 3204 3205 3212 3217 3219 3221
3118 3118 3121 3124 3126 3126 3127 3127 3126 3125 3128 3132 3133 3135 3142 3148 3152 3157 3161 3163 3167 3169 3168 3170 3172 3174 3178 3181 3184 3186 3190 3193 3195 3198 3199 3198 3200 3203 3203 3203 3203 3211 3214 3218
3119 3121 3123 3125 3127 3129 3131 3131 3130 3128 3130 3133 3134 3136 3141 3146 3152 3155 3161 3164 3167 3168 3170 3171 3172 3175 3177 3180 3183 3184 3189 3191 3193 3194 3196 3197 3198 3199 3202 3202 3203 3208 3209 3212
3119 3121 3123 3123 3125 3124 3129 3134 3134 3131 3134 3136 3134 3137 3141 3145 3150 3155 3160 3163 3167 3169 3169 3171 3174 3176 3178 3180 3183 3186 3189 3191 3192 3194 3195 3196 3196 3195 3197 3198 3201 3203 3204 3207
3118 3119 3123 3123 3124 3125 3129 3129 3132 3132 3136 3138 3137 3138 3140 3145 3149 3153 3158 3162 3165 3169 3170 3172 3175 3177 3178 3181 3184 3185 3186 3188 3190 3192 3193 3193 3193 3193 3193 3193 3194 3197 3198 3199
3118 3119 3121 3122 3124 3125 3126 3128 3129 3137 3139 3136 3139 3140 3142 3146 3151 3153 3156 3161 3164 3167 3169 3171 3172 3175 3177 3179 3180 3181 3182 3184 3185 3186 3187 3188 3189 3189 3189 3189 3190 3190 3191 3192
3119 3120 3120 3122 3122 3124 3123 3127 3128 3128 3128 3131 3135 3138 3142 3145 3148 3151 3155 3157 3160 3164 3163 3167 3169 3169 3171 3172 3175 3176 3176 3177 3179 3180 3181 3183 3183 3183 3182 3184 3184 3184 3184 3185
3120 3119 3119 3120 3119 3119 3120 3123 3124 3124 3126 3128 3132 3133 3137 3140 3144 3149 3153 3156 3157 3158 3158 3160 3162 3162 3163 3164 3165 3166 3169 3170 3170 3171 3171 3171 3173 3174 3177 3178 3178 3178 3178 3177
3116 3116 3117 3119 3118 3118 3121 3122 3124 3125 3128 3129 3131 3133 3135 3138 3140 3142 3146 3149 3152 3154 3155 3154 3154 3155 3155 3155 3156 3157 3159 3161 3162 3163 3162 3163 3164 3165 3167 3168 3170 3170 3169 3169
3116 3115 3115 3116 3117 3118 3118 3121 3123 3124 3127 3129 3131 3133 3134 3134 3136 3137 3139 3143 3145 3147 3147 3146 3147 3148 3149 3149 3150 3150 3151 3153 3153 3154 3155 3156 3157 3157 3158 3160 3160 3161 3161 3162
3111 3112 3113 3113 3113 3114 3116 3118 3120 3121 3123 3124 3126 3128 3128 3128 3129 3130 3131 3136 3138 3139 3139 3140 3140 3141 3142 3143 3145 3145 3146 3146 3146 3147 3148 3149 3150 3151 3152 3153 3154 3154 3154 3153